P2NTK KBOS-KBOS

Flight info

Callsign P2NTK
Flight time N/A
Altitude VFR/015
Route
Aircraft K100/L-DOV/C

Departure

Time 2026-05-07 18:45
Airport Boston Logan International Airport (KBOS)

Arrival

Time N/A
Airport Boston Logan International Airport (KBOS)
Time Latitude Longitude Altitude Speed Heading
2026-05-07 18:36 42.37416 -71.02049 23 ft 0 kts 134°
2026-05-07 18:38 42.37415 -71.02046 23 ft 2 kts 96°
2026-05-07 18:38 42.37414 -71.01984 25 ft 14 kts 139°
2026-05-07 18:38 42.37323 -71.01855 28 ft 23 kts 137°
2026-05-07 18:38 42.37215 -71.01713 25 ft 18 kts 135°
2026-05-07 18:39 42.37110 -71.01572 25 ft 23 kts 136°
2026-05-07 18:39 42.36971 -71.01384 22 ft 28 kts 133°
2026-05-07 18:39 42.36848 -71.01223 19 ft 21 kts 133°
2026-05-07 18:39 42.36749 -71.01138 22 ft 12 kts 173°
2026-05-07 18:40 42.36667 -71.01174 23 ft 14 kts 206°
2026-05-07 18:40 42.36591 -71.01207 22 ft 2 kts 192°
2026-05-07 18:40 42.36547 -71.01230 20 ft 16 kts 203°
2026-05-07 18:40 42.36415 -71.01301 20 ft 19 kts 195°
2026-05-07 18:41 42.36331 -71.01308 20 ft 12 kts 122°
2026-05-07 18:41 42.36271 -71.01171 22 ft 20 kts 121°
2026-05-07 18:41 42.36215 -71.01008 21 ft 17 kts 113°
2026-05-07 18:41 42.36164 -71.00854 21 ft 20 kts 116°
2026-05-07 18:42 42.36110 -71.00672 18 ft 22 kts 108°
2026-05-07 18:42 42.36072 -71.00528 21 ft 14 kts 108°
2026-05-07 18:42 42.36034 -71.00374 21 ft 20 kts 108°
2026-05-07 18:42 42.35991 -71.00205 24 ft 22 kts 108°
2026-05-07 18:43 42.35930 -71.00041 24 ft 16 kts 133°
2026-05-07 18:43 42.35824 -70.99901 26 ft 24 kts 135°
2026-05-07 18:43 42.35722 -70.99774 23 ft 22 kts 134°
2026-05-07 18:43 42.35602 -70.99618 22 ft 20 kts 133°
2026-05-07 18:44 42.35536 -70.99515 20 ft 9 kts 124°
2026-05-07 18:44 42.35488 -70.99409 21 ft 19 kts 86°
2026-05-07 18:44 42.35542 -70.99284 24 ft 16 kts 354°
2026-05-07 18:44 42.35662 -70.99433 21 ft 57 kts 314°
2026-05-07 18:45 42.36117 -71.00028 130 ft 113 kts 315°
2026-05-07 18:45 42.36782 -71.00843 336 ft 140 kts 315°
2026-05-07 18:45 42.37514 -71.01766 604 ft 143 kts 303°
2026-05-07 18:45 42.37681 -71.03021 907 ft 137 kts 256°
2026-05-07 18:46 42.37075 -71.04069 916 ft 154 kts 224°
2026-05-07 18:46 42.36259 -71.05057 907 ft 158 kts 226°
2026-05-07 18:46 42.35445 -71.06066 939 ft 157 kts 225°
2026-05-07 18:46 42.34678 -71.07117 1067 ft 157 kts 226°
2026-05-07 18:47 42.33900 -71.08187 1096 ft 162 kts 226°
2026-05-07 18:47 42.33105 -71.09282 1095 ft 164 kts 226°
2026-05-07 18:47 42.32300 -71.10387 1097 ft 165 kts 226°
2026-05-07 18:47 42.31495 -71.11495 1107 ft 165 kts 226°
2026-05-07 18:48 42.30700 -71.12595 1177 ft 163 kts 226°
2026-05-07 18:48 42.29907 -71.13686 1224 ft 163 kts 226°
2026-05-07 18:48 42.29117 -71.14781 1249 ft 163 kts 226°
2026-05-07 18:48 42.28319 -71.15880 1272 ft 164 kts 226°
2026-05-07 18:49 42.27513 -71.16979 1296 ft 165 kts 226°
2026-05-07 18:49 42.26980 -71.17709 1310 ft 165 kts 226°
2026-05-07 18:49 42.25941 -71.19148 1493 ft 157 kts 226°
2026-05-07 18:49 42.25175 -71.20188 1673 ft 154 kts 225°
2026-05-07 18:50 42.24425 -71.21218 1839 ft 153 kts 226°
2026-05-07 18:50 42.23679 -71.22241 2013 ft 153 kts 226°
2026-05-07 18:50 42.23181 -71.22919 2126 ft 154 kts 226°
2026-05-07 18:50 42.22434 -71.23944 2321 ft 154 kts 226°
2026-05-07 18:51 42.21676 -71.24987 2481 ft 155 kts 226°
2026-05-07 18:51 42.20928 -71.26015 2657 ft 153 kts 226°
2026-05-07 18:51 42.20182 -71.27040 2827 ft 153 kts 225°
2026-05-07 18:51 42.19441 -71.28062 3000 ft 152 kts 226°
2026-05-07 18:52 42.18692 -71.29077 3176 ft 151 kts 232°
2026-05-07 18:52 42.18356 -71.29723 3173 ft 155 kts 238°
2026-05-07 18:52 42.18102 -71.30303 3177 ft 154 kts 243°
2026-05-07 18:53 42.17684 -71.31616 3121 ft 158 kts 253°
2026-05-07 18:53 42.17378 -71.33098 3158 ft 166 kts 252°
2026-05-07 18:53 42.16963 -71.34533 3349 ft 161 kts 249°
2026-05-07 18:53 42.16584 -71.35919 3738 ft 153 kts 253°
2026-05-07 18:54 42.16302 -71.37315 3868 ft 155 kts 261°
2026-05-07 18:54 42.16180 -71.38725 3850 ft 149 kts 269°
2026-05-07 18:54 42.16153 -71.40096 3916 ft 147 kts 268°
2026-05-07 18:54 42.16259 -71.41449 3861 ft 147 kts 291°
2026-05-07 18:55 42.16919 -71.42524 3603 ft 155 kts 330°
2026-05-07 18:55 42.17950 -71.43087 3274 ft 159 kts 347°
2026-05-07 18:55 42.18960 -71.42943 3097 ft 145 kts 35°
2026-05-07 18:55 42.19470 -71.41784 2577 ft 146 kts 79°
2026-05-07 18:56 42.19429 -71.40481 2159 ft 133 kts 128°
2026-05-07 18:56 42.18683 -71.40260 1604 ft 114 kts 225°
2026-05-07 18:56 42.18275 -71.41078 1158 ft 90 kts 265°
2026-05-07 18:56 42.18481 -71.41909 525 ft 97 kts 293°
2026-05-07 18:57 42.18610 -71.42682 479 ft 83 kts 280°
2026-05-07 18:57 42.18896 -71.43315 717 ft 78 kts 345°
2026-05-07 18:57 42.18915 -71.42668 458 ft 118 kts 122°
2026-05-07 18:57 42.18798 -71.41714 526 ft 97 kts 97°
2026-05-07 18:58 42.18663 -71.40915 942 ft 86 kts 147°
2026-05-07 18:58 42.18046 -71.41348 524 ft 107 kts 212°
2026-05-07 18:58 42.17568 -71.41750 427 ft 68 kts 213°
2026-05-07 18:58 42.17212 -71.42009 459 ft 53 kts 199°
2026-05-07 18:59 42.16882 -71.42471 356 ft 83 kts 229°